FW6644 Weather Reports


Display with metric or nautical units.
time (UTC)temp
F
wind
direction
speed
MPH
gust
MPH
rain 1hr
in
rain 24hr
in
rain mn
in
humidity
%
barometer
mb
20260906024555 95 302 2.0 6.0 0.00 0.00 0.00 28 1006.8
20260906023105 95 314 3.0 7.0 0.00 0.00 0.00 28 1006.6
20260906021547 95 225 1.0 8.0 0.00 0.00 0.00 28 1006.5
20260906020055 96 340 2.0 6.0 0.00 0.00 0.00 28 1006.5
20260906014546 96 325 1.0 6.0 0.00 0.00 0.00 26 1006.5
20260906013047 97 359 3.0 8.0 0.00 0.00 0.00 26 1006.6
20260906011547 98 273 3.0 9.0 0.00 0.00 0.00 26 1006.6
20260906010043 99 303 3.0 9.0 0.00 0.00 0.00 25 1006.6
20260906004550 100 298 4.0 9.0 0.00 0.00 0.00 24 1006.7
20260906003048 100 269 3.0 7.0 0.00 0.00 0.00 24 1006.7
20260906001545 100 12 4.0 10.0 0.00 0.00 0.00 24 1006.6
20260906000042 101 278 3.0 12.0 0.00 0.00 0.00 24 1006.5
20260905234542 100 330 4.0 9.0 0.00 0.00 0.00 25 1006.4
20260905233047 101 347 4.0 19.0 0.00 0.00 0.00 25 1006.5
20260905231539 101 1 4.0 10.0 0.00 0.00 0.00 26 1006.4
20260905230038 101 20 2.0 10.0 0.00 0.00 0.00 27 1006.5
20260905224537 101 317 3.0 8.0 0.00 0.00 0.00 27 1006.5
20260905223035 101 25 2.0 6.0 0.00 0.00 0.00 27 1006.6
20260905221536 102 321 3.0 8.0 0.00 0.00 0.00 26 1006.8
20260905220032 103 231 2.0 7.0 0.00 0.00 0.00 26 1007.0
20260905214530 103 243 1.0 10.0 0.00 0.00 0.00 27 1007.2
20260905213029 101 39 3.0 8.0 0.00 0.00 0.00 28 1007.5
20260905211527 101 312 0.0 10.0 0.00 0.00 0.00 28 1007.7
20260905210026 103 64 1.0 6.0 0.00 0.00 0.00 26 1007.9
20260905204525 102 169 1.0 5.0 0.00 0.00 0.00 27 1008.0
20260905203023 101 163 4.0 9.0 0.00 0.00 0.00 28 1008.3
20260905201522 100 58 1.0 5.0 0.00 0.00 0.00 28 1008.6
20260905200022 102 226 3.0 8.0 0.00 0.00 0.00 27 1008.7
20260905194521 102 233 3.0 6.0 0.00 0.00 0.00 26 1008.9
20260905193020 102 158 0.0 7.0 0.00 0.00 0.00 26 1009.1
20260905191521 101 238 3.0 6.0 0.00 0.00 0.00 27 1009.3
20260905190028 100 81 0.0 4.0 0.00 0.00 0.00 27 1009.6
20260905184519 101 57 1.0 6.0 0.00 0.00 0.00 27 1009.8
20260905183018 102 173 1.0 4.0 0.00 0.00 0.00 26 1010.0
20260905181516 99 259 0.0 3.0 0.00 0.00 0.00 28 1010.1
20260905180019 99 236 1.0 4.0 0.00 0.00 0.00 28 1010.2
20260905174514 98 246 0.0 3.0 0.00 0.00 0.00 30 1010.2
20260905173013 100 325 0.0 3.0 0.00 0.00 0.00 28 1010.2
20260905171515 101 96 0.0 2.0 0.00 0.00 0.00 27 1010.2
20260905170012 98 172 0.0 1.0 0.00 0.00 0.00 29 1010.3
20260905164507 95 356 0.0 3.0 0.00 0.00 0.00 30 1010.2
20260905163007 95 56 0.0 4.0 0.00 0.00 0.00 32 1010.2
20260905161507 96 102 0.0 2.0 0.00 0.00 0.00 32 1010.1
20260905160006 95 235 0.0 1.0 0.00 0.00 0.00 33 1010.3
20260905154605 94 106 0.0 2.0 0.00 0.00 0.00 35 1010.2
20260905153056 92 122 0.0 2.0 0.00 0.00 0.00 38 1010.0
20260905151552 90 210 1.0 2.0 0.00 0.00 0.00 42 1010.0
20260905150051 89 128 0.0 2.0 0.00 0.00 0.00 43 1009.9
20260905144547 89 149 0.0 2.0 0.00 0.00 0.00 44 1009.9